Regional Weather Roundup
Issued by NWS

Home | Current Version | Previous Version | Graphics & Text | Print | Product List | Glossary Off
Versions: 1 2 3 4 5 6 7 8 9 10 11 12 13 14 15 16 17 18 19 20 21 22 23 24 25 26 27 28 29 30 31 32 33 34 35 36 37 38 39 40 41 42 43 44 45 46 47 48 49 50

000
ASUS43 KTOP 251459
RWRKS

WEATHER ROUNDUP FOR KANSAS
NATIONAL WEATHER SERVICE GOODLAND KS
1000 AM CDT WED MAY 25 2016

NOTE:  "FAIR" INDICATES FEW OR NO CLOUDS BELOW 12,000 FEET WITH NO
SIGNIFICANT WEATHER AND/OR OBSTRUCTIONS TO VISIBILITY.

KSZ001>006-013>018-027>032-041>047-251600-
NORTHWEST KANSAS

CITY           SKY/WX    TMP DP  RH WIND       PRES   REMARKS
GOODLAND       CLOUDY    59  55  87 E7        29.94R
HILL CITY      CLOUDY    63  57  81 E15       29.88F
RUSSELL        CLOUDY    66  63  90 E10       29.84S
$$

KSZ061>065-074>080-084>089-251600-
SOUTHWEST KANSAS

CITY           SKY/WX    TMP DP  RH WIND       PRES   REMARKS
DODGE CITY     SUNNY     69  57  65 W12       29.84R
ELKHART          N/A     72  41  32 NW7         N/A
GARDEN CITY    CLOUDY    65  61  87 N13       29.86S FOG
GREAT BEND     CLOUDY    66  61  82 SE13      29.84R
LIBERAL        SUNNY     72  46  40 N12       29.91R
$$

KSZ066>073-081>083-090>101-251600-
SOUTHEAST KANSAS

CITY           SKY/WX    TMP DP  RH WIND       PRES   REMARKS
CHANUTE        PTSUNNY   71  61  70 S17G24    29.87S
COFFEYVILLE    PTSUNNY   68  62  81 S15       29.91F
HUTCHINSON     CLOUDY    71  67  87 SE15      29.83F
MEDICINE LODGE   N/A     79  69  71 S15G23    29.81F
NEWTON         CLOUDY    68  63  83 S13G24    29.88F
PARSONS        CLOUDY    69  62  78 S13       29.90S
WICHITA INTL   PTSUNNY   73  67  81 S23G33    29.85R
WICHITA JABRA  CLOUDY    72  67  84 S21G30    29.86R
WICHITA MCCONL PTSUNNY   72  66  83 S24       29.86S
WINFIELD       PTSUNNY   72  65  78 SE22G31   29.89R
$$

KSZ007>012-019>026-033>040-048>060-102>105-251600-
NORTHEAST KANSAS

CITY           SKY/WX    TMP DP  RH WIND       PRES   REMARKS
CONCORDIA      CLOUDY    63  59  87 E7        29.88R
EMPORIA        CLOUDY    70  62  76 S12G21    29.90R
LAWRENCE       CLOUDY    72  61  68 E7        29.90R
MANHATTAN      CLOUDY    71  61  70 N3        29.89R
OLATHE IND     CLOUDY    70  60  70 N8        29.93R
OLATHE EXE     CLOUDY    70  58  65 N6        29.92R
SALINA         CLOUDY    71  65  81 S10       29.85F
TOPEKA BILLARD CLOUDY    74  61  63 E9        29.88F
TOPEKA FORBES  CLOUDY    74  61  63 S14G22    29.87F
$$




USA.gov is the U.S. government's official web portal to all federal, state and local government web resources and services.